EW2192 Weather Reports


Display with metric or nautical units.
time (UTC)temp
F
wind
direction
speed
MPH
gust
MPH
rain 1hr
in
rain 24hr
in
rain mn
in
humidity
%
barometer
mb
20260504050133 54 5 2.0 5.0 0.00 0.00 0.00 47 999.1
20260504044621 53 5 1.0 4.0 0.00 0.00 0.00 48 999.4
20260504043030 52 5 1.0 3.0 0.00 0.00 0.00 49 999.7
20260504041609 51 5 0.0 2.0 0.00 0.00 0.00 51 999.9
20260504040042 51 5 0.0 2.0 0.00 0.00 0.00 52 1000.3
20260504034627 52 5 0.0 2.0 0.00 0.00 0.00 53 1000.6
20260504033044 52 5 0.0 1.0 0.00 0.00 0.00 52 1001.1
20260504031506 53 9 0.0 2.0 0.00 0.00 0.00 50 1001.3
20260504030104 54 5 0.0 2.0 0.00 0.00 0.00 49 1001.5
20260504024535 56 5 0.0 2.0 0.00 0.00 0.00 45 1001.5
20260504023117 57 5 0.0 1.0 0.00 0.00 0.00 44 1001.6
20260504021535 59 5 0.0 1.0 0.00 0.00 0.00 43 1001.7
20260504020003 60 5 0.0 1.0 0.00 0.00 0.00 40 1001.6
20260504014556 61 5 0.0 1.0 0.00 0.00 0.00 37 1001.6
20260504013019 63 5 0.0 1.0 0.00 0.00 0.00 33 1001.6
20260504011609 63 5 0.0 1.0 0.00 0.00 0.00 31 1001.6
20260504010039 64 5 0.0 3.0 0.00 0.00 0.00 31 1001.6
20260504004628 65 5 0.0 2.0 0.00 0.00 0.00 30 1001.8
20260504003047 65 5 1.0 3.0 0.00 0.00 0.00 30 1002.0
20260504001513 66 5 1.0 6.0 0.00 0.00 0.00 30 1002.1
20260504000134 66 5 1.0 3.0 0.00 0.00 0.00 29 1002.1
20260503234529 67 5 1.0 4.0 0.00 0.00 0.00 27 1002.1
20260503233127 67 5 2.0 8.0 0.00 0.00 0.00 28 1002.2
20260503231553 68 5 2.0 6.0 0.00 0.00 0.00 26 1002.3
20260503230015 68 5 2.0 9.0 0.00 0.00 0.00 28 1002.4
20260503224607 68 5 1.0 9.0 0.00 0.00 0.00 28 1002.4
20260503223021 67 360 1.0 6.0 0.00 0.00 0.00 27 1002.5
20260503221619 67 5 4.0 9.0 0.00 0.00 0.00 26 1002.6
20260503220035 67 5 3.0 9.0 0.00 0.00 0.00 26 1002.7
20260503214503 68 5 2.0 8.0 0.00 0.00 0.00 26 1002.9
20260503213057 68 5 2.0 10.0 0.00 0.00 0.00 25 1003.0
20260503211520 69 5 4.0 14.0 0.00 0.00 0.00 25 1003.1
20260503210111 69 5 2.0 12.0 0.00 0.00 0.00 23 1003.2
20260503204608 70 5 3.0 9.0 0.00 0.00 0.00 23 1003.4
20260503203025 71 5 3.0 10.0 0.00 0.00 0.00 22 1003.4
20260503201621 70 5 2.0 6.0 0.00 0.00 0.00 24 1003.4
20260503200041 70 5 2.0 9.0 0.00 0.00 0.00 23 1003.5
20260503194507 70 5 2.0 9.0 0.00 0.00 0.00 27 1003.6
20260503193059 70 5 3.0 11.0 0.00 0.00 0.00 27 1003.7
20260503191534 69 5 3.0 13.0 0.00 0.00 0.00 30 1003.8
20260503190118 69 5 3.0 11.0 0.00 0.00 0.00 27 1003.9
20260503184542 69 5 4.0 11.0 0.00 0.00 0.00 29 1003.9
20260503183131 70 5 3.0 9.0 0.00 0.00 0.00 34 1003.9
20260503181544 69 5 2.0 8.0 0.00 0.00 0.00 35 1004.0
20260503180138 69 5 3.0 6.0 0.00 0.00 0.00 38 1004.2
20260503174552 68 5 3.0 6.0 0.00 0.00 0.00 38 1004.2
20260503173017 68 5 3.0 12.0 0.00 0.00 0.00 37 1004.3
20260503171612 68 5 2.0 9.0 0.00 0.00 0.00 39 1004.4
20260503160114 64 5 2.0 6.0 0.00 0.00 0.00 47 1004.4
20260503120107 45 5 0.0 2.0 0.00 0.00 0.00 73 1003.8
20260503081537 53 5 0.0 2.0 0.00 0.00 0.00 57 1004.6
20260503071623 54 5 2.0 3.0 0.00 0.00 0.00 53 1005.0
20260503060116 56 5 3.0 6.0 0.00 0.00 0.00 51 1006.1
20260503054538 56 5 2.0 10.0 0.00 0.00 0.00 50 1006.3
20260503053129 56 5 3.0 6.0 0.00 0.00 0.00 50 1006.4
20260503051549 56 5 1.0 3.0 0.00 0.00 0.00 52 1006.6